Back to catalog

COSMOS 2271

AliveMilitaryPO
NORAD 23002·PAYLOAD·🇷🇺 Russia

Launched Feb 12, 1994 from Plesetsk Cosmodrome

Loading…

Next Passes (next 24 hours)

TLE

FreshSource: Space-Track

Epoch: Sep 14, 2026, 07:54 UTC

1 23002U 94011D   26257.32976061 -.00000001  00000-0 -65460-4 0  9996
2 23002  82.5614 240.1280 0006965   0.6256 359.4843 12.63524681502749

Track COSMOS 2271 in real time with AllMySat

Download on the App Store